Regional Weather Roundup
Issued by NWS

Home | Current Version | Previous Version | Graphics & Text | Print | Product List | Glossary Off
Versions: 1 2 3 4 5 6 7 8 9 10 11 12 13 14 15 16 17 18 19 20 21 22 23 24 25 26 27 28 29 30 31 32 33 34 35 36 37 38 39 40 41 42 43 44 45 46 47 48 49 50

000
ASUS43 KMKX 020510
RWRWI

WISCONSIN REGIONAL WEATHER ROUNDUP
NATIONAL WEATHER SERVICE MILWAUKEE/SULLIVAN WI
1100 PM CST SUN MAR 01 2015

NOTE: "FAIR" INDICATES FEW OR NO CLOUDS BELOW 12,000 FEET WITH NO
SIGNIFICANT WEATHER AND/OR OBSTRUCTIONS TO VISIBILITY.

WIZ001-002-006>008-014>016-023>028-020600-
NORTHWEST WISCONSIN

CITY           SKY/WX    TMP DP  RH WIND       PRES   REMARKS
SUPERIOR ARPT  PTCLDY    16   7  68 W13G21    30.32R WCI   2
ASHLAND        MOCLDY    19   7  59 NW13G25   30.26R WCI   6
HAYWARD        MOCLDY    18   9  68 W8        30.25R WCI   8
SIREN          CLEAR     16   9  74 NW10      30.32R WCI   3
CUMBERLAND     CLEAR     18   9  68 NW14G21   30.27R WCI   4
RICE LAKE      PTCLDY    19  10  67 W13G20    30.29R WCI   6
CHETEK         PTCLDY    18  10  69 W7        30.28R WCI   9
LADYSMITH      CLEAR     17   9  68 W14       30.25R WCI   3
EAU CLAIRE     CLEAR     13   6  74 SW7       30.30R WCI   3
MENOMONIE      CLEAR     21  12  68 W12       30.32R WCI   9
NEW RICHMOND   CLEAR     19  10  67 NW16G24   30.33R WCI   5
OSCEOLA        MOCLDY    20  11  68 W12       30.37R WCI   8
$$

WIZ003>005-009-010-017-018-020600-
NORTH CENTRAL WISCONSIN

CITY           SKY/WX    TMP DP  RH WIND       PRES   REMARKS
MANITOWISH WTR CLOUDY    17   7  65 W12G17    30.14S WCI   4
ARBOR VITAE    MOCLDY    17   6  64 W6        30.14S WCI   8
WOODRUFF       MOCLDY    17   6  64 W6        30.14S WCI   8
RHINELANDER    CLEAR     13   3  64 W13       30.15R WCI  -2
EAGLE RIVER    MOCLDY    17   5  59 W13       30.12S WCI   4
LAND O LAKES   FLURRIES  17   8  65 W6        30.12S WCI   9
PHILLIPS       CLEAR     15   6  68 W5        30.18S WCI   7
TOMAHAWK       CLEAR     15   6  67 W9        30.18S WCI   3
MEDFORD        CLEAR     13   6  72 W6        30.20S WCI   4
MERRILL        CLEAR     13   5  68 W7        30.20R WCI   3
$$

WIZ029-030-035-036-043>047-020600-
CENTRAL WISCONSIN

CITY           SKY/WX    TMP DP  RH WIND       PRES   REMARKS
WAUSAU         CLEAR     16   5  62 NW9       30.20S WCI   4
MOSINEE        MOCLDY    16   9  73 W9        30.23R WCI   4
MARSHFIELD     PTCLDY    14   6  70 W7        30.24R WCI   4
STEVENS POINT  CLEAR     14   6  68 W5        30.25R WCI   7
WAUPACA        CLEAR     20   8  59 W9        30.25S WCI  10
WAUTOMA        CLEAR     17   7  65 W8        30.27R WCI   7
WISC RAPIDS    PTCLDY    16   5  62 W6        30.27R WCI   7
CAMP DOUGLAS   CLEAR     17  11  77 W10       30.29R WCI   4
$$

WIZ011>013-019>022-031-037>040-048>050-020600-
NORTHEAST WISCONSIN

CITY           SKY/WX    TMP DP  RH WIND       PRES   REMARKS
ANTIGO         CLEAR     14   4  66 W12G18    30.17R WCI   0
SHAWANO        CLEAR     19   7  59 W5        30.23R WCI  12
OCONTO         CLEAR     17   6  63 W9        30.21R WCI   5
STURGEON BAY   FAIR      18   7  62 W15       30.21R WCI   3
GREEN BAY      CLEAR     18   8  65 W9        30.24R WCI   7
MANITOWOC      FAIR      19   9  65 W12       30.24R WCI   7
APPLETON       CLEAR     18   7  62 W10       30.24R WCI   6
CLINTONVILLE   CLEAR     18   7  62 W7        30.23S WCI   8
OSHKOSH        CLEAR     18   6  59 W7        30.26R WCI   9
$$

WIZ032>034-041-042-053>061-020600-
SOUTHWEST WISCONSIN

CITY           SKY/WX    TMP DP  RH WIND       PRES   REMARKS
LA CROSSE      CLEAR     14   6  70 SW8       30.34R WCI   3
SPARTA         CLEAR      6   1  81 CALM      30.32R
VIROQUA        CLEAR     15   9  76 W6        30.30R WCI   7
BOSCOBEL       CLEAR     13   6  74 SW6       30.37R WCI   4
PRAIRIE DU CHI CLEAR     17   8  66 NW3       30.38R
PLATTEVILLE    PTCLDY    11   6  79 S6        30.34R WCI   2
$$

WIZ056-057-062-063-064-067-068-020600-
SOUTH CENTRAL WISCONSIN

CITY           SKY/WX    TMP DP  RH WIND       PRES   REMARKS
REEDSBURG      CLEAR     16   8  69 SW5       30.30R WCI   9
BARABOO/DELLS  CLEAR     15   6  68 W5        30.29R WCI   8
LONE ROCK      CLEAR     16   7  67 W9        30.34R WCI   4
MINERAL POINT  CLEAR     14   9  79 W6        30.32R WCI   5
MADISON        CLEAR     17   6  62 SW3       30.31R
MIDDLETON      CLEAR     17   6  62 W7        30.31S WCI   8
WATERTOWN      CLEAR     17   7  66 SW6       30.30R WCI   8
MONROE         CLEAR     16  10  79 W13       30.32R WCI   2
JANESVILLE     CLEAR     18   9  68 W5        30.34R WCI  11
$$

WIZ051-052-058>065-066-070>072-020600-
SOUTHEAST WISCONSIN

CITY           SKY/WX    TMP DP  RH WIND       PRES   REMARKS
MILWAUKEE      CLEAR     22   6  50 W15G23    30.29R WCI   9
WAUKESHA       CLEAR     18   7  62 W9        30.30R WCI   6
MILWAUKEE/TIMM CLEAR     21   7  53 W10       30.29S WCI  10
RACINE         CLEAR     20   8  60 W9        30.31R WCI   9
BURLINGTON     CLEAR     16   6  64 W6        30.32R WCI   7
KENOSHA        CLEAR     18   8  65 W12       30.30R WCI   5
FOND DU LAC    CLEAR     18   6  59 W7        30.27R WCI   9
SHEBOYGAN      CLEAR     19   6  57 W15       30.25R WCI   5
WEST BEND      CLEAR     19   7  58 W14       30.26S WCI   6
JUNEAU         CLEAR     14   6  68 SW6       30.29R WCI   5
$$

LSZ147-162-020600-
LAKE SUPERIOR

STATION/POSITION TIME  TEMP    WIND        PRES    WAVE
                       AIR SEA DIR/SP/G            HT/PER
                 (UTC) (F)     (DEG/KT/KT) (MB)    (FT/S)
DEVILS ISLAND    0500   20     300/ 23/ 29 1025.3R
PORT WING        0400   21     300/ 20     1024.7R
SAXON HARBOR     0420   22     280/ 10/ 21 1023.7R
$$

LMZ867-665-643>646-020600-
LAKE MICHIGAN

STATION/POSITION TIME  TEMP    WIND        PRES    WAVE
                       AIR SEA DIR/SP/G            HT/PER
                 (UTC) (F)     (DEG/KT/KT) (MB)    (FT/S)
NORTHPORT PIER   0503   20     280/  7/ 15 1021.7R
SISTER BAY       0413   19     260/ 15/ 17   N/A
KEWAUNEE LAKESHO 0400   20     280/ 12/ 16 1022.0R
SHEBOYGAN LAKESH 0500   22     270/ 10/ 13 1026.0R
PORT WASHINGTON  0400   23     280/ 10/ 17 1025.7R
MILWAUKEE LAKESH 0400   24     280/ 18/ 24   N/A
KENOSHA   LAKESH 0500   20     280/  9/ 16 1026.4R
$$

TC  - TEMPERATURE IN CELSIUS
VSB - VISIBILITY IN STATUTE MILES
WCI - WIND CHILL INDEX
HX  - HEAT INDEX



USA.gov is the U.S. government's official web portal to all federal, state and local government web resources and services.